Temperature
19 19 20 20 23 24 22 22 23 23 23 21 21 19 17 15 16 15 12 13 13 14 14 14 15 14 14 14 15 15 15 15 16 15 15 15 16 16 16 16 16 16 16 16 16 17 16 16 17
19 20 20 22 25 23 21 22 22 21 21 20 19 18 16 12 9 10 11 12 13 14 14 15 15 15 15 15 15 14 14 15 15 15 14 15 16 16 16 16 16 16 16 16 16 16 16 16 16
20 20 21 24 23 22 21 21 21 20 19 20 18 14 10 7 6 6 8 10 13 14 15 15 15 15 15 15 15 14 14 14 15 14 14 14 15 15 15 16 16 16 16 16 16 16 16 16 16
20 21 23 23 20 19 19 18 20 21 18 17 17 13 8 6 6 6 8 10 12 13 14 14 14 14 15 15 15 14 14 14 14 14 14 14 14 15 15 15 15 15 16 16 16 16 16 16 16
21 23 23 21 19 18 16 16 16 17 16 15 15 12 8 7 6 7 8 10 11 12 13 13 13 13 14 14 14 14 14 14 14 14 14 14 14 15 15 15 15 15 15 15 15 15 15 15 15
21 23 23 21 19 19 16 14 15 15 13 13 14 12 9 7 7 7 8 9 11 12 12 13 13 13 13 13 13 13 13 13 14 14 14 14 14 14 14 14 14 15 15 15 15 15 15 15 15
22 23 21 20 19 17 15 12 12 13 12 11 12 12 9 7 7 7 8 9 10 12 12 13 13 13 12 12 12 12 12 12 13 13 14 14 14 13 13 14 14 14 14 14 14 14 15 15 15
20 23 21 20 19 15 13 11 10 11 9 9 9 9 8 6 7 8 9 10 11 12 12 12 12 12 13 12 12 12 12 12 12 12 13 13 13 13 13 13 13 13 14 14 14 14 14 15 15
20 22 20 20 19 15 13 12 10 10 9 8 7 7 6 6 7 8 9 10 11 11 11 11 11 11 12 12 12 12 12 12 12 12 12 13 12 13 13 13 13 13 13 13 14 14 14 14 14
21 20 17 17 15 14 12 12 11 10 9 8 8 7 6 7 7 8 8 8 8 8 9 9 10 10 11 11 11 11 12 12 12 12 12 12 12 12 12 13 13 13 13 13 13 13 13 13 13
18 18 15 13 13 12 11 10 10 11 8 7 7 7 6 7 6 6 6 6 6 7 9 9 10 10 10 10 10 10 11 11 12 12 12 12 12 12 12 12 12 12 12 12 12 12 13 12 13
15 15 14 12 11 11 10 9 8 8 6 6 6 6 6 6 6 5 5 5 6 7 8 8 8 9 9 9 9 9 9 9 10 10 11 11 11 12 12 11 11 11 11 11 11 12 12 12 12
15 13 12 11 10 10 9 8 7 7 6 6 6 6 5 5 5 4 4 4 5 6 7 8 8 7 8 7 7 7 6 6 7 6 6 7 8 9 10 10 10 10 10 11 11 11 11 12 13
14 13 12 12 11 10 9 8 8 6 6 6 6 6 5 4 4 4 4 4 4 4 5 5 5 5 5 5 6 5 5 4 4 3 3 4 4 5 6 7 8 9 9 10 10 10 10 11 12
15 14 14 12 12 10 11 9 7 6 6 6 6 5 5 4 3 3 2 2 3 3 3 4 4 4 4 4 4 4 2 2 2 2 2 2 2 2 3 4 5 6 7 9 9 9 9 10 11
17 18 18 13 12 11 12 11 7 6 6 6 6 5 5 4 3 2 2 1 1 1 2 2 2 1 2 2 2 3 1 0 0 0 0 0 0 1 3 3 3 3 5 5 6 7 7 8 9
19 20 18 14 12 12 12 9 6 5 6 6 6 5 5 4 3 2 1 1 0 1 1 1 1 1 0 -0 0 -0 -0 -0 -1 -1 -1 -1 -1 -0 0 1 1 2 2 3 3 4 5 6 8
20 19 17 16 11 12 10 8 6 5 6 6 6 5 4 4 2 1 1 0 1 1 0 -0 0 -0 -1 -1 -1 -1 -2 -2 -2 -2 -3 -3 -3 -3 -2 -2 -1 -0 0 1 2 3 3 5 6
18 18 17 13 10 10 9 8 7 6 6 6 5 5 4 3 2 1 0 -0 -1 -1 -0 -0 -1 -1 -2 -2 -3 -3 -3 -3 -3 -4 -4 -4 -4 -4 -4 -3 -3 -2 -2 -1 -1 0 1 3 4
17 18 15 11 10 10 8 7 7 6 5 5 4 4 3 3 2 1 -0 -1 -2 -2 -3 -3 -3 -3 -4 -4 -5 -4 -4 -4 -4 -5 -5 -5 -5 -5 -5 -5 -4 -4 -4 -3 -2 -2 -1 0 2
17 17 15 13 9 9 8 8 6 6 5 5 4 4 3 2 1 0 -1 -2 -3 -4 -4 -4 -4 -5 -5 -6 -6 -6 -5 -5 -5 -6 -6 -6 -6 -6 -6 -5 -5 -5 -5 -5 -4 -4 -3 -2 -1
17 14 13 12 12 13 10 13 8 6 6 6 5 4 3 2 1 -0 -1 -3 -4 -5 -5 -5 -5 -6 -7 -7 -7 -7 -7 -7 -7 -7 -7 -7 -7 -6 -6 -6 -6 -6 -6 -5 -5 -4 -4 -3 -2
15 12 12 12 13 12 11 12 9 6 6 6 5 4 3 2 1 -1 -2 -4 -5 -6 -6 -6 -6 -7 -7 -8 -8 -8 -8 -8 -7 -7 -8 -8 -7 -7 -6 -6 -6 -6 -6 -5 -5 -5 -4 -4 -3
12 13 12 13 13 15 12 12 10 8 6 5 4 4 3 2 0 -2 -3 -4 -5 -6 -7 -7 -8 -8 -8 -8 -9 -9 -9 -9 -8 -8 -8 -8 -8 -8 -7 -7 -7 -7 -6 -6 -6 -5 -5 -5 -4
15 16 18 17 17 16 11 12 8 5 5 4 4 3 2 1 -1 -2 -4 -5 -6 -7 -8 -8 -9 -9 -9 -9 -10 -10 -10 -10 -10 -9 -9 -9 -9 -9 -8 -8 -8 -7 -7 -6 -6 -6 -6 -5 -5
13 14 15 16 16 15 11 10 7 5 4 4 3 3 2 0 -2 -3 -4 -6 -6 -8 -8 -9 -9 -10 -10 -10 -11 -11 -11 -11 -11 -11 -10 -10 -10 -10 -9 -9 -9 -8 -7 -7 -6 -6 -6 -6 -5
11 13 11 13 13 13 13 8 6 5 5 4 3 2 1 -1 -3 -4 -5 -6 -7 -8 -9 -9 -10 -11 -11 -11 -12 -12 -12 -12 -12 -12 -11 -11 -11 -10 -10 -9 -9 -9 -8 -7 -7 -6 -6 -5 -5
10 10 9 12 13 14 14 12 8 5 5 4 3 2 0 -2 -3 -4 -5 -7 -8 -8 -9 -10 -10 -11 -12 -12 -12 -12 -12 -13 -13 -12 -12 -12 -12 -11 -11 -10 -10 -9 -8 -8 -7 -7 -6 -6 -5
11 12 10 11 11 12 12 12 7 6 5 4 3 2 -1 -2 -4 -5 -6 -7 -8 -9 -9 -10 -10 -11 -12 -12 -13 -13 -13 -13 -13 -13 -13 -13 -12 -12 -11 -11 -11 -10 -9 -8 -8 -7 -7 -6 -6
9 10 10 11 11 10 9 8 6 5 4 4 3 1 -1 -3 -4 -5 -7 -8 -9 -10 -10 -11 -11 -11 -12 -13 -13 -13 -13 -13 -13 -13 -13 -13 -13 -12 -12 -12 -11 -11 -10 -8 -8 -7 -7 -6 -6
Wind_Speed
11 7 3 2 3 11 15 8 8 13 14 17 20 19 20 19 10 7 16 28 29 22 22 23 22 18 14 12 11 9 9 8 10 11 11 11 11 11 11 9 9 10 10 10 10 10 9 8 6
8 4 1 1 10 17 15 11 12 12 7 9 15 17 17 17 14 10 18 28 26 24 26 28 29 27 23 21 18 14 13 10 9 10 12 12 13 13 12 11 11 10 11 12 12 11 11 10 8
4 2 1 5 16 15 12 13 10 13 18 11 10 14 9 11 13 15 19 23 21 23 24 28 31 30 29 28 26 23 21 18 12 10 14 14 15 15 14 13 12 12 12 12 12 11 12 11 9
3 1 5 14 20 17 16 17 14 11 16 16 13 12 8 12 11 16 18 21 21 23 24 27 31 31 31 31 31 30 28 25 20 16 15 15 16 14 15 16 14 13 12 12 12 11 11 11 9
1 5 12 18 19 16 20 18 19 19 11 16 17 12 9 14 15 16 18 22 22 23 25 27 30 30 31 32 31 30 29 29 28 27 23 20 17 15 15 16 15 14 13 12 11 10 9 8 9
2 5 14 17 17 14 16 18 17 20 18 14 10 11 9 15 17 19 20 22 24 24 24 25 27 28 29 32 32 31 31 30 29 29 28 27 25 17 15 14 14 14 13 9 9 9 9 8 7
8 11 14 15 12 9 9 12 17 17 17 16 9 7 8 20 18 16 18 20 23 24 24 25 25 26 25 27 30 31 32 32 30 29 28 27 25 22 19 16 16 14 13 12 11 10 9 9 8
3 7 10 9 9 6 6 10 15 18 17 13 13 10 10 17 16 15 16 19 21 24 24 24 24 23 22 22 26 28 30 30 30 29 29 25 22 22 22 20 20 17 15 14 13 11 11 10 8
1 8 10 6 6 7 6 9 12 16 21 23 17 15 12 13 15 18 19 21 23 22 23 23 24 24 23 21 23 24 26 27 27 27 27 23 20 19 20 20 23 20 16 15 15 14 12 10 10
5 9 9 8 10 12 13 14 10 12 19 19 19 16 14 16 18 22 24 24 24 24 22 24 24 25 24 22 21 21 21 22 23 23 25 22 20 19 20 19 20 20 17 15 14 15 13 12 12
8 10 13 15 18 18 19 17 10 8 13 14 14 14 15 18 21 23 23 22 21 21 21 22 22 22 22 21 20 19 20 20 21 22 23 22 20 20 20 18 18 18 16 13 12 12 12 12 11
10 12 12 11 12 12 14 13 15 17 12 11 12 13 16 20 21 22 22 22 21 21 22 22 24 22 22 20 19 20 19 20 20 20 21 21 18 18 19 17 18 17 15 15 13 10 11 12 13
16 14 17 20 20 19 19 18 16 15 11 10 11 14 17 18 18 19 19 20 21 21 22 22 25 23 23 21 20 20 20 20 20 19 20 21 19 17 19 18 18 17 17 16 14 13 11 11 11
17 22 20 17 16 13 17 14 9 10 8 9 11 14 16 18 19 19 20 22 23 22 22 22 23 24 24 21 21 21 20 21 20 19 20 21 21 20 18 17 16 16 17 18 17 15 14 12 11
22 19 15 7 8 11 8 11 8 6 7 9 11 12 14 17 19 20 21 21 22 22 22 21 22 24 24 22 22 21 21 20 20 20 21 22 23 22 21 17 15 16 18 18 17 17 14 13 13
9 8 5 6 3 2 5 4 7 4 6 9 10 12 13 16 18 19 20 21 22 21 21 20 21 22 22 21 21 21 20 18 18 19 20 23 24 24 22 17 15 18 18 15 12 13 13 13 13
4 2 4 5 4 1 2 6 7 5 6 8 10 12 13 15 17 19 20 21 22 21 21 21 22 21 22 22 21 20 19 19 19 19 19 22 23 24 22 18 18 20 16 12 12 12 13 13 14
3 4 4 2 6 7 9 11 9 6 6 9 10 13 14 16 17 18 20 21 23 22 21 22 21 21 21 20 19 18 16 17 19 19 20 22 22 23 22 18 19 19 14 13 13 15 14 13 14
4 5 4 4 4 5 8 11 9 6 7 9 10 12 14 15 16 17 19 21 23 23 23 23 22 22 19 16 17 17 16 14 15 18 23 23 23 23 21 18 18 17 15 16 16 14 15 13 12
5 3 3 4 4 3 8 8 7 5 6 8 10 11 13 16 18 18 18 19 21 21 21 21 21 21 18 16 17 16 16 14 16 18 21 22 24 23 20 18 14 16 16 17 16 16 13 13 12
1 2 1 0 6 4 7 7 8 5 3 5 7 9 12 14 17 18 18 20 21 21 20 19 20 20 19 20 18 16 15 15 15 16 16 22 23 22 20 19 16 15 13 13 14 14 15 14 14
1 3 4 6 8 3 5 1 7 5 0 6 11 13 15 15 17 19 19 19 20 20 18 19 19 19 19 20 17 19 15 16 18 16 17 22 22 22 21 19 17 14 12 14 13 14 12 13 13
5 4 2 7 5 2 5 4 5 4 3 9 13 15 16 16 17 19 17 17 18 18 17 17 18 17 18 19 18 17 16 16 16 17 19 19 20 22 22 22 19 16 13 14 15 15 14 11 12
4 1 4 4 3 2 3 3 3 3 4 10 14 17 18 17 17 17 15 15 16 17 16 17 18 18 18 19 19 19 19 20 20 21 19 17 17 18 21 23 22 19 15 15 15 16 16 13 14
8 5 1 2 2 1 3 3 3 4 6 10 15 18 18 16 16 16 16 17 17 18 17 17 19 19 19 19 19 19 20 20 20 20 19 19 17 17 19 22 20 19 19 18 15 16 15 16 15
6 6 5 5 7 5 2 1 4 4 6 10 14 16 18 17 16 15 15 16 17 17 18 18 19 19 19 19 20 19 19 17 17 19 19 18 17 17 21 22 22 23 23 19 16 16 16 15 15
2 2 1 4 4 6 1 2 4 2 8 13 16 17 18 17 16 15 15 16 17 18 18 18 19 19 19 19 19 18 18 18 19 19 18 17 18 20 23 23 21 22 22 20 18 16 17 16 16
3 2 2 3 6 7 4 2 1 1 12 17 18 18 18 16 15 15 16 16 17 17 18 18 19 18 18 18 17 16 17 18 18 18 19 20 20 23 23 21 21 20 19 19 19 17 16 16 16
1 1 2 3 2 5 9 3 4 5 12 15 17 18 18 16 15 16 15 15 16 17 17 18 19 19 18 18 17 17 17 17 18 17 19 20 21 22 21 22 22 22 21 20 19 20 17 17 16
1 1 2 4 2 3 5 3 4 6 11 14 17 18 17 14 15 16 15 16 16 17 17 18 18 18 18 17 17 16 16 17 18 19 20 21 21 22 22 22 22 22 22 21 21 21 18 16 17
Wind_Direction
324 325 302 241 138 94 81 63 64 71 67 64 65 78 77 51 20 43 346 355 346 360 8 12 6 1 358 354 353 358 347 343 339 339 344 334 324 317 311 314 314 312 309 303 299 295 289 275 264
328 318 248 326 105 95 77 56 54 44 44 87 64 68 63 43 17 6 347 335 349 5 11 10 12 9 4 2 358 353 340 330 325 330 327 318 313 309 305 305 305 306 308 306 297 290 283 272 253
306 309 69 76 74 70 62 34 39 60 51 52 73 55 47 4 359 353 337 332 356 11 13 13 18 19 20 18 11 2 352 343 334 332 318 311 307 303 296 293 294 297 299 299 294 284 278 271 254
310 135 83 86 78 55 44 30 28 59 48 43 80 75 75 23 1 343 340 353 9 15 14 17 20 22 24 23 21 16 10 1 351 337 316 306 301 297 297 294 292 295 293 290 290 282 276 268 254
351 83 96 89 83 69 47 36 42 55 60 42 65 79 65 20 8 359 2 11 14 15 15 17 20 21 24 24 23 21 17 15 9 360 344 330 317 309 314 308 290 291 292 286 286 291 282 265 251
82 95 101 95 88 69 49 33 44 51 53 44 62 80 51 13 9 7 11 18 19 18 17 17 17 18 20 21 20 19 19 17 13 8 1 353 340 323 317 314 299 289 283 285 283 293 293 278 262
84 91 92 97 94 59 34 29 37 43 41 37 38 78 41 14 10 10 18 21 24 24 21 19 17 15 14 16 15 13 13 13 11 9 4 358 352 345 332 320 309 306 290 285 286 280 277 272 261
54 95 97 81 89 82 63 68 50 47 45 48 41 53 24 10 13 22 27 26 27 24 21 18 15 14 10 9 9 8 9 8 6 4 1 356 354 353 345 338 332 320 302 296 295 285 279 269 261
32 96 87 76 92 112 97 82 66 68 68 65 63 60 40 26 27 30 28 26 23 20 17 13 11 9 6 4 2 3 4 3 2 360 355 353 351 350 345 344 347 337 312 298 289 280 279 279 258
53 85 69 63 91 98 84 85 91 80 64 60 58 52 41 35 32 31 27 21 18 15 12 10 8 5 1 358 356 357 359 359 358 357 353 349 346 345 342 343 346 340 333 312 289 272 268 264 253
56 91 99 86 98 100 88 75 74 78 60 52 50 43 39 36 34 29 25 21 15 11 9 8 6 4 2 356 354 353 352 352 351 352 352 349 346 345 344 343 345 339 335 323 307 285 268 264 262
89 82 94 105 102 95 90 89 71 71 79 68 58 48 40 36 32 27 21 16 11 8 6 4 1 0 359 355 354 350 348 348 346 345 350 350 347 345 343 340 339 337 335 328 319 300 278 266 265
91 98 98 107 101 98 97 89 85 76 76 72 63 53 43 38 32 28 21 15 8 5 2 360 357 357 355 353 351 347 346 346 342 342 347 348 346 342 339 336 335 333 333 330 321 308 295 278 261
114 116 118 115 104 103 95 83 82 78 85 79 62 50 42 35 27 23 16 12 6 2 358 355 354 354 353 351 350 345 342 340 339 341 343 345 345 339 336 332 331 331 331 326 317 308 299 287 276
125 120 117 117 117 130 104 66 77 92 90 70 57 46 39 33 27 22 14 10 3 358 355 353 352 351 351 349 347 344 341 340 340 340 342 346 344 341 337 330 329 330 328 320 315 309 299 286 275
142 145 128 72 158 203 247 105 99 102 90 67 52 42 36 32 27 19 13 8 2 359 355 351 349 348 349 348 346 344 343 343 341 340 342 346 343 343 336 332 331 330 325 320 315 309 304 293 282
167 122 119 111 37 164 139 136 128 120 95 66 48 40 31 25 22 16 12 7 3 360 356 353 352 350 350 350 347 347 348 346 342 341 346 342 342 341 338 333 331 331 327 324 320 312 305 296 287
100 117 127 122 60 81 109 124 120 103 78 57 41 32 25 20 15 11 8 6 1 358 355 353 350 350 350 350 348 347 345 345 343 342 343 341 341 339 337 333 332 332 330 327 324 315 304 296 290
110 122 132 122 115 87 115 127 124 105 72 51 36 25 16 11 8 9 5 2 358 357 356 353 351 349 349 352 347 345 342 343 343 341 339 339 338 337 336 335 333 333 329 325 321 318 309 300 294
136 132 109 110 109 129 141 139 134 111 69 44 26 15 7 2 3 1 356 358 358 355 353 351 351 348 348 353 347 341 337 339 339 338 334 334 333 334 336 333 331 332 328 323 322 323 317 306 302
147 353 327 308 124 115 157 172 175 148 91 41 25 7 0 1 357 353 354 357 357 354 350 349 351 347 349 351 348 344 342 340 341 340 334 332 330 327 329 329 327 327 319 313 317 316 313 313 305
295 4 306 180 174 150 202 230 175 169 115 10 5 0 354 354 353 352 353 355 354 350 347 347 348 346 348 349 350 347 344 340 337 335 331 329 327 325 327 325 327 324 317 316 313 310 305 299 299
3 359 124 169 193 198 194 266 108 183 289 350 355 351 350 350 350 350 351 350 347 348 346 345 345 346 349 349 350 345 341 339 335 334 332 332 329 326 328 323 329 323 318 313 311 306 301 295 288
334 144 121 150 211 256 126 257 120 139 357 348 347 344 348 349 346 346 345 344 346 348 345 346 346 348 349 349 349 345 341 339 337 336 335 334 329 329 326 328 328 323 319 318 312 307 303 296 286
359 340 277 225 241 358 122 238 115 95 22 354 344 346 349 347 344 345 345 347 348 347 345 347 347 346 347 347 346 344 341 338 336 335 333 331 330 327 324 326 325 320 319 316 310 302 297 296 290
18 0 6 322 318 318 200 270 117 93 12 348 345 348 350 348 347 347 347 346 346 346 347 347 346 344 344 345 343 341 340 337 334 332 329 326 326 323 323 322 321 318 319 316 311 303 298 299 296
357 17 338 286 280 285 231 128 164 145 348 346 349 352 353 350 348 349 346 346 348 349 348 347 345 342 341 341 340 339 340 338 334 330 328 326 325 324 323 323 321 318 318 319 318 308 305 305 300
65 72 312 321 323 317 305 285 111 300 344 349 351 353 351 352 353 350 350 349 349 349 347 346 345 341 340 339 338 337 338 337 334 331 330 328 326 324 324 325 323 318 319 323 320 308 306 310 306
78 83 30 304 294 305 312 359 95 20 351 347 349 354 352 353 353 350 350 349 348 348 347 347 345 342 341 340 338 338 338 337 336 335 332 329 327 326 325 326 324 323 324 327 323 310 316 316 314
41 39 334 313 298 268 283 286 134 10 350 349 349 352 353 350 348 349 349 349 348 348 348 346 343 341 340 340 339 338 338 339 339 338 336 333 330 328 327 327 324 324 327 327 323 313 320 323 323
Height
1537 1536 1537 1538 1538 1539 1549 1555 1552 1549 1552 1557 1556 1558 1569 1578 1579 1590 1592 1584 1581 1581 1577 1573 1570 1568 1566 1564 1562 1560 1558 1557 1555 1554 1552 1550 1549 1547 1546 1546 1545 1544 1542 1541 1540 1540 1539 1539 1539
1537 1537 1540 1538 1533 1545 1557 1556 1557 1560 1561 1562 1564 1567 1572 1582 1590 1591 1587 1583 1581 1579 1575 1572 1570 1568 1566 1565 1563 1561 1559 1557 1555 1553 1551 1549 1547 1545 1544 1544 1543 1542 1540 1539 1538 1537 1537 1536 1535
1538 1539 1543 1542 1546 1556 1563 1565 1564 1565 1565 1564 1569 1576 1586 1597 1597 1594 1590 1585 1583 1579 1576 1574 1571 1568 1565 1563 1561 1559 1557 1556 1554 1552 1549 1548 1546 1545 1544 1542 1541 1540 1539 1537 1537 1536 1535 1534 1533
1540 1543 1545 1548 1561 1571 1572 1575 1571 1566 1569 1572 1574 1586 1599 1606 1603 1598 1593 1588 1584 1580 1577 1575 1572 1569 1566 1564 1561 1558 1556 1553 1551 1550 1549 1548 1546 1544 1542 1541 1539 1538 1536 1535 1534 1534 1532 1532 1531
1543 1545 1548 1558 1569 1577 1582 1582 1579 1576 1579 1582 1581 1594 1604 1608 1604 1600 1595 1589 1585 1581 1578 1575 1572 1569 1567 1564 1562 1559 1556 1553 1550 1547 1546 1545 1544 1542 1540 1538 1537 1536 1534 1532 1531 1531 1530 1529 1529
1547 1547 1552 1565 1574 1579 1585 1588 1586 1585 1588 1589 1591 1597 1608 1610 1604 1600 1596 1592 1587 1583 1580 1577 1574 1571 1567 1564 1562 1559 1556 1553 1550 1548 1545 1543 1541 1540 1538 1536 1535 1533 1532 1530 1528 1528 1527 1527 1526
1550 1551 1561 1568 1575 1585 1592 1593 1592 1593 1593 1596 1599 1602 1611 1610 1606 1603 1599 1594 1589 1585 1581 1578 1575 1572 1569 1567 1564 1560 1556 1553 1550 1547 1544 1542 1540 1537 1535 1533 1532 1530 1528 1527 1526 1525 1525 1524 1524
1554 1556 1564 1570 1577 1593 1598 1599 1602 1599 1602 1604 1604 1609 1613 1612 1608 1605 1600 1595 1590 1586 1583 1580 1577 1574 1571 1568 1565 1561 1557 1554 1550 1546 1543 1540 1538 1535 1532 1530 1528 1526 1525 1524 1522 1521 1521 1521 1520
1556 1559 1569 1575 1579 1593 1598 1601 1606 1609 1609 1610 1612 1616 1617 1614 1610 1606 1600 1595 1591 1588 1585 1581 1578 1575 1571 1568 1564 1561 1557 1553 1550 1546 1543 1539 1536 1533 1530 1527 1525 1523 1521 1520 1519 1517 1518 1517 1516
1561 1567 1581 1586 1589 1597 1601 1604 1608 1611 1613 1616 1618 1618 1617 1614 1610 1604 1600 1596 1593 1589 1586 1582 1578 1574 1571 1568 1564 1560 1556 1553 1549 1545 1541 1538 1534 1531 1528 1524 1522 1520 1518 1516 1514 1514 1513 1513 1513
1570 1578 1590 1595 1598 1601 1605 1609 1612 1611 1618 1622 1621 1620 1618 1615 1610 1606 1603 1600 1597 1593 1588 1583 1579 1575 1571 1566 1562 1558 1554 1550 1547 1543 1539 1536 1532 1528 1524 1521 1518 1516 1514 1512 1511 1510 1509 1510 1510
1579 1589 1594 1601 1604 1605 1607 1614 1616 1619 1624 1626 1624 1623 1620 1616 1611 1608 1605 1601 1597 1593 1589 1584 1579 1575 1569 1565 1561 1556 1552 1547 1543 1539 1536 1532 1528 1524 1521 1518 1515 1512 1510 1509 1508 1506 1505 1504 1504
1584 1596 1600 1602 1604 1609 1611 1613 1618 1624 1627 1626 1626 1623 1620 1617 1614 1611 1608 1604 1599 1593 1588 1583 1579 1574 1569 1564 1559 1555 1550 1546 1541 1537 1533 1529 1524 1520 1517 1514 1510 1508 1505 1504 1502 1502 1502 1501 1500
1589 1595 1602 1605 1607 1612 1614 1618 1621 1626 1627 1626 1626 1624 1621 1617 1614 1611 1607 1603 1597 1592 1588 1582 1577 1572 1567 1562 1558 1554 1549 1544 1540 1536 1532 1528 1523 1518 1513 1509 1506 1503 1500 1498 1497 1496 1496 1495 1495
1589 1595 1603 1608 1611 1612 1612 1619 1626 1629 1628 1627 1625 1624 1622 1618 1615 1612 1607 1603 1599 1593 1588 1583 1577 1572 1566 1562 1556 1550 1545 1541 1538 1535 1531 1526 1521 1517 1511 1506 1502 1498 1495 1493 1492 1491 1490 1490 1489
1588 1589 1593 1609 1610 1610 1612 1618 1629 1629 1629 1627 1625 1625 1623 1620 1616 1613 1608 1605 1600 1593 1588 1584 1577 1571 1565 1559 1553 1547 1542 1538 1535 1532 1528 1522 1518 1513 1508 1504 1499 1495 1490 1488 1485 1485 1485 1484 1483
1583 1580 1589 1603 1607 1606 1607 1618 1627 1628 1628 1628 1627 1625 1624 1621 1618 1614 1608 1604 1599 1593 1587 1581 1575 1569 1561 1556 1550 1544 1540 1536 1532 1529 1524 1520 1515 1510 1506 1502 1497 1492 1488 1484 1481 1479 1478 1477 1476
1579 1583 1591 1595 1608 1608 1610 1619 1628 1630 1630 1629 1629 1627 1625 1622 1619 1615 1609 1604 1599 1593 1585 1579 1573 1566 1559 1552 1547 1542 1537 1532 1530 1527 1523 1518 1513 1508 1503 1499 1495 1490 1485 1481 1476 1473 1471 1471 1470
1584 1584 1589 1602 1610 1612 1615 1622 1629 1632 1632 1630 1629 1627 1626 1623 1619 1615 1609 1603 1597 1589 1582 1577 1570 1565 1559 1551 1545 1539 1533 1530 1527 1523 1519 1515 1510 1506 1501 1498 1493 1488 1483 1478 1474 1469 1466 1465 1465
1587 1586 1594 1607 1613 1614 1618 1624 1630 1632 1632 1632 1630 1628 1626 1622 1618 1614 1609 1603 1596 1590 1584 1577 1570 1565 1560 1552 1545 1540 1533 1528 1524 1520 1516 1512 1508 1504 1499 1493 1488 1483 1478 1474 1471 1468 1463 1461 1461
1589 1589 1595 1601 1614 1616 1619 1622 1628 1631 1631 1631 1630 1628 1625 1621 1617 1613 1608 1602 1596 1589 1584 1576 1568 1563 1558 1550 1543 1537 1532 1526 1521 1517 1513 1508 1504 1501 1497 1491 1486 1481 1476 1472 1468 1465 1461 1457 1455
1589 1598 1599 1602 1603 1601 1612 1599 1619 1628 1629 1629 1629 1627 1624 1621 1617 1612 1606 1599 1593 1587 1581 1574 1567 1561 1555 1548 1541 1535 1531 1525 1520 1516 1512 1507 1502 1497 1493 1490 1484 1478 1474 1470 1465 1460 1457 1454 1451
1597 1601 1599 1600 1597 1601 1607 1601 1615 1626 1625 1626 1626 1623 1620 1618 1614 1608 1603 1598 1592 1586 1580 1573 1566 1560 1553 1547 1540 1535 1530 1525 1519 1514 1509 1504 1499 1494 1489 1485 1481 1475 1470 1466 1462 1456 1453 1450 1447
1603 1601 1601 1600 1597 1589 1597 1598 1605 1618 1624 1625 1625 1621 1618 1615 1612 1607 1601 1596 1591 1585 1578 1571 1564 1557 1551 1545 1539 1533 1528 1523 1517 1511 1505 1500 1496 1491 1485 1481 1476 1470 1465 1461 1457 1452 1447 1444 1441
1599 1594 1584 1583 1578 1582 1601 1598 1609 1625 1628 1628 1625 1621 1617 1615 1610 1605 1600 1595 1590 1584 1576 1569 1562 1555 1549 1543 1537 1531 1526 1521 1515 1509 1503 1497 1492 1487 1482 1477 1471 1466 1461 1456 1451 1446 1441 1436 1432
1608 1605 1600 1596 1584 1585 1600 1600 1617 1627 1627 1626 1623 1620 1617 1613 1608 1603 1600 1594 1588 1581 1574 1567 1560 1553 1547 1540 1534 1529 1524 1519 1513 1508 1502 1496 1491 1485 1480 1474 1468 1463 1458 1452 1447 1441 1436 1430 1425
1616 1612 1617 1608 1601 1598 1590 1610 1622 1625 1624 1623 1622 1619 1616 1611 1607 1603 1598 1593 1587 1579 1572 1565 1558 1551 1544 1538 1532 1526 1521 1516 1510 1504 1499 1493 1488 1482 1476 1471 1465 1460 1455 1449 1443 1436 1430 1424 1419
1618 1621 1623 1611 1604 1590 1578 1590 1606 1618 1620 1620 1619 1616 1612 1609 1606 1601 1596 1591 1584 1576 1570 1563 1556 1549 1542 1535 1529 1523 1518 1512 1507 1502 1496 1490 1484 1478 1472 1467 1461 1456 1451 1445 1439 1432 1427 1421 1415
1618 1618 1621 1619 1617 1606 1594 1591 1615 1619 1620 1619 1616 1613 1612 1608 1603 1598 1592 1587 1581 1573 1566 1560 1552 1546 1540 1533 1527 1521 1516 1511 1505 1500 1494 1488 1481 1475 1469 1462 1456 1451 1446 1441 1435 1429 1425 1417 1411
1624 1623 1622 1617 1615 1616 1614 1611 1617 1618 1617 1615 1613 1613 1611 1607 1601 1595 1590 1584 1577 1570 1563 1556 1550 1543 1537 1531 1525 1520 1515 1509 1503 1497 1491 1485 1478 1472 1466 1460 1452 1446 1441 1436 1431 1424 1421 1413 1407